sat.trackr.live / text

‹ back to catalog

GLOBALSTAR M094

NORAD 39074 · 2013-005C

PAYLOAD ACTIVE UNKNOWN

§ Identity

Operator
Country
GLOB
Launch date
2013-02-06
Launch site
TYMSC
Launch vehicle
Mass (kg)
RCS (m²)
4.78

Purposes: comms

External: N2YO · Heavens-Above · Gunter

§ Orbital elements

Epoch: 2026-09-09T18:48:42.890400Z

Period
114.08 min
Inclination
51.9940°
Eccentricity
0.0000356
Mean motion
12.62264804 rev/d
Perigee alt
1,413.3 km
Apogee alt
1,413.9 km
Semi-major
7,791.7 km
B*
2.1748e-5
RAAN
253.2295°
Arg perigee
117.6776°
Mean anomaly
242.4127°
Rev number
62,915

§ Raw data

GLOBALSTAR M0941 39074U 13005C   26252.78382975 -.00000100  00000+0  21748-4 0  99952 39074  51.9940 253.2295 0000356 117.6776 242.4127 12.62264804629150

JSON: /api/v1/satellites/39074 · /tle

For live sub-satellite position, see the globe view (requires WebGL).

§ Visibility from observer

Set your observer location to see the next 7 days of passes ≥ 10°. The values pass through the URL so the page stays shareable.

No JS? Fill the form by hand. The geolocation button needs JavaScript.